Location: Ellerstadt
(49.4644°N, 8.2615°E)
Time: 09:09:04
(UTC+00:00)

Cosmos 1943 Rocket - Visible Passes

Search period start: 16 June 2021 00:00
Search period end: 26 June 2021 00:00
Orbit: 813 x 842 km, 71.0° (Epoch: 15 June)

Date Brightness Start Highest point End Pass type
(mag) Time Alt. Az. Time Alt. Az. Time Alt. Az.
16 Jun 2.6 00:56:41 10° NW 01:01:51 42° WSW 01:05:13 20° SSW visible
16 Jun 4.8 21:11:37 10° N 21:13:12 11° NNE 21:14:47 10° NE visible
16 Jun 3.5 22:53:42 10° NNW 22:58:45 35° NE 23:03:46 10° ESE visible
17 Jun 2.5 00:37:23 10° NW 00:42:40 47° WSW 00:45:49 23° S visible
17 Jun 4.9 20:52:47 10° NNE 20:53:48 10° NNE 20:54:49 10° NNE visible
17 Jun 3.6 22:34:31 10° NNW 22:39:27 32° NE 22:44:21 10° ESE visible
18 Jun 2.3 00:18:06 10° NW 00:23:28 53° WSW 00:26:30 25° S visible
18 Jun 3.7 22:15:21 10° NNW 22:20:09 29° NE 22:24:55 10° ESE visible
18 Jun 2.2 23:58:51 10° NW 00:04:16 60° WSW 00:07:14 27° S visible
19 Jun 3.8 21:56:11 10° NNW 22:00:50 27° NE 22:05:27 10° ESE visible
19 Jun 2.1 23:39:35 10° NNW 23:45:04 68° WSW 23:48:02 28° S visible
20 Jun 4.2 01:26:27 10° W 01:27:44 11° W 01:29:02 10° WSW visible
20 Jun 3.9 21:37:02 10° NNW 21:41:30 25° NE 21:45:59 10° E visible
20 Jun 2.1 23:20:20 10° NNW 23:25:51 76° WSW 23:28:53 28° SSE visible
21 Jun 4.1 01:06:24 10° WNW 01:08:37 13° W 01:10:22 11° WSW visible
21 Jun 4.0 21:17:52 10° N 21:22:11 23° NE 21:26:29 10° E visible
21 Jun 2.1 23:01:06 10° NNW 23:06:39 84° WSW 23:09:47 27° SSE visible
22 Jun 4.0 00:46:40 10° WNW 00:49:30 14° W 00:51:16 13° WSW visible
22 Jun 4.1 20:58:43 10° N 21:02:51 21° NE 21:06:59 10° E visible
22 Jun 2.1 22:41:52 10° NNW 22:47:25 87° ENE 22:50:43 25° SSE visible
23 Jun 3.9 00:27:04 10° WNW 00:30:24 16° W 00:32:12 14° WSW visible
23 Jun 4.2 20:39:34 10° N 20:43:31 19° NE 20:47:26 10° E visible
23 Jun 2.2 22:22:38 10° NNW 22:28:11 79° ENE 22:31:41 23° SE visible
24 Jun 3.8 00:07:34 10° WNW 00:11:16 19° W 00:13:11 16° SW visible
24 Jun 4.2 20:20:27 10° N 20:24:10 18° NE 20:27:53 10° E visible
24 Jun 2.3 22:03:25 10° NNW 22:08:57 71° ENE 22:12:41 21° SE visible
24 Jun 3.7 23:48:07 10° NW 23:52:08 21° W 23:54:12 17° SW visible
25 Jun 2.4 21:44:13 10° NNW 21:49:42 63° ENE 21:53:44 19° SE visible
25 Jun 3.6 23:28:42 10° NW 23:32:59 24° WSW 23:35:14 18° SW visible
